Flag for Canada Weather past 2 weeks in Lloydminster, Alberta, Canada

Now
36 °F

Overcast.


Feels Like: 27 °F
Forecast: 30 / 49 °F
Wind: 13 mph from Northeast

Location: Lloydminister

Current Time: Apr 25, 2015 at 9:09:27 PM

Latest Report: Apr 25, 2015 at 8:00 PM


Visibility: 15 mi

Pressure: 30.11 "Hg

Humidity: 56%

Dew point: 21 °F

Location of LloydminsterLocation

Historic Weather in Lloydminster — Graph

°F

Lloydminster temperature yesterday

Maximum temperature yesterday: 39 °F (at 10:00 AM)
Minimum temperature yesterday: 32 °F (at 3:57 AM)
Average temperature yesterday: 35 °F

Past Weeks' High & Low Weather Summary

 TemperatureHumidityPressure
High66 °F (Apr 22, 3:00 PM)100% (Apr 18, 1:00 AM)30.31 "Hg (Apr 18, 1:00 AM)
Low27 °F (Apr 19, 6:00 AM)14% (Apr 13, 12:00 PM)29.25 "Hg (Apr 11, 1:00 PM)
Average43 °F52%29.90 "Hg
* Reported Apr 10 8:00 PM — Apr 25 8:00 PM, Lloydminster, Weather by CustomWeather, © 2015

Note: Actual official high and low records may vary slightly from our data, if they occured in-between our weather recording intervals... More about our weather records

Advertising

Lloydminster weather history for previous 24 hours

 ConditionsComfort  
Time TempWeatherWind HumidityBarometerVisibility
8:00 PM
Sat, Apr 25
36 °FOvercast.13 mph56%30.11 "Hg15 mi
7:00 PM36 °FSprinkles. Overcast.13 mph56%30.10 "Hg15 mi
6:00 PM34 °FSprinkles. Overcast.13 mph65%30.10 "Hg15 mi
5:03 PM36 °FSprinkles. Overcast.10 mph52%30.07 "Hg10 mi
4:00 PM37 °FOvercast.16 mph41%30.06 "Hg15 mi
3:00 PM36 °FOvercast.14 mph48%30.05 "Hg15 mi
2:00 PM34 °FOvercast.12 mph56%30.05 "Hg15 mi
1:00 PM32 °FLight snow. Overcast.17 mph69%30.05 "Hg15 mi
12:00 PM30 °FLight snow. Overcast.15 mph75%30.04 "Hg4 mi
11:00 AM32 °FLight snow. Overcast.17 mph60%30.03 "Hg15 mi
10:00 AM34 °FOvercast.18 mph56%30.01 "Hg15 mi
9:00 AM32 °FOvercast.18 mph60%30.01 "Hg15 mi
8:00 AM32 °FOvercast.16 mph64%29.99 "Hg15 mi
7:00 AM30 °FOvercast.15 mph75%29.98 "Hg15 mi
6:46 AM30 °FOvercast.20 mph75%29.98 "Hg9 mi
6:00 AM30 °FMostly cloudy.15 mph86%29.97 "Hg9 mi
5:50 AM30 °FOvercast.15 mph86%29.96 "Hg9 mi
5:00 AM30 °FMostly cloudy.15 mph86%29.96 "Hg9 mi
4:00 AM30 °FOvercast.12 mph86%29.95 "Hg9 mi
3:00 AM30 °FOvercast.15 mph86%29.95 "Hg9 mi
2:00 AM32 °FMostly cloudy.13 mph80%29.93 "Hg9 mi
1:00 AM32 °FOvercast.14 mph80%29.93 "Hg9 mi
12:00 AM32 °FMostly cloudy.17 mph87%29.92 "Hg9 mi
11:00 PM
Fri, Apr 24
34 °FMostly cloudy.15 mph81%29.92 "Hg9 mi
10:00 PM34 °FOvercast.20 mph81%29.90 "Hg15 mi
9:00 PM34 °FOvercast.15 mph81%29.89 "Hg15 mi
Weather by CustomWeather, © 2015

See weather overviewHow to use our weather pages